User: anonymous   Login
Location: Unspecified
(0.0000°N, 0.0000°E)
Time: 20:46:49
(UTC+00:00)
Language:

USA 264 DEB - Orbit

View from above orbital plane
View from above orbital plane
View from above satellite
View from above satellite

Ground track
Ground track

The orbit data is extracted from the following two-line orbital elements,

1 40981U 15058R   21134.88789052 0.00000000  00000-0  00000-0 0    02
2 40981  63.4441 128.2782 0052350   6.3648 353.6352 13.40821455    08
Epoch (UTC): 14 May 2021 21:18:33
Eccentricity: 0.0052350
inclination: 63.4441°
perigee height: 1067 km
apogee height: 1145 km
right ascension of ascending node: 128.2782°
argument of perigee: 6.3648°
revolutions per day: 13.40821455
mean anomaly at epoch: 353.6352°
orbit number at epoch: 0

The dashed part of the orbit path shows where the satellite is in the earth's shadow,  

DLR